[[{"header":{"parameterUnit":"m.s-1","parameterCategory":2,"la1":30.2992,"la2":30.254,"lo1":-89.0895,"lo2":-89.0443,"dy":0.0025,"dx":0.0025,"nx":19,"ny":19,"refTime":"2026-04-23T03:00:00:Z","depth":"0","parameterNumber":2,"parameterNumberName":"U-component_of_CURRENTS"},"data":[0,0,0,0.3239,0.3242,0.3329,0.3329,0.3354,0.3354,0,0,0,0,0,0,0,0,0,0,0,0.3201,0.3202,0.3239,0.3242,0.3329,0.3329,0.3354,0.3354,0,0,0,0,0,0,0,0,0,0,0,0.3201,0.3202,0.3203,0.3243,0.3329,0.3329,0.3354,0.3305,0,0,0,0,0,0,0,0,0,0,0.3229,0.3208,0.3202,0.3203,0.3243,0.3329,0.3329,0.3303,0.3308,0.3296,0,0.3324,0,0.3351,0.3356,0.3356,0,0,0,0.3222,0.3204,0.3239,0.3203,0.3244,0.3329,0.3284,0.3306,0.3311,0.3302,0.3325,0.3326,0.3351,0.3356,0.3356,0.3486,0.3487,0,0,0.3217,0.3201,0.3236,0.3243,0.3284,0.3281,0.3287,0.331,0.3313,0.3325,0.3328,0.3352,0.3356,0.3356,0.3485,0.3486,0,0,0,0.3217,0.3197,0.3233,0.3241,0.3271,0.3284,0.3291,0.3312,0.3328,0.3328,0.3352,0.3356,0.3356,0.3483,0.3485,0.3565,0,0,0,0.3213,0.3199,0.3231,0.322,0.3271,0.3304,0.3292,0.3326,0.3331,0.3352,0.3356,0.3357,0.3482,0.3484,0.3559,0.3536,0,0,0,0.3194,0.3197,0.3215,0.3219,0.3269,0.3305,0.3321,0.3328,0.3346,0.3356,0.3357,0.3481,0.3484,0.3555,0.3531,0.3575,0,0,0,0.3162,0.3199,0.3215,0.327,0.3268,0.3363,0.3321,0.3372,0.3388,0.3356,0.3482,0.3485,0.3553,0.3527,0.3572,0.3569,0.3584,0,0,0.319,0.3202,0.3238,0.3255,0.335,0.3348,0.3445,0.3437,0.343,0.3461,0.3465,0.3561,0.353,0.3574,0.3741,0.3751,0,0,0,0.3235,0.3258,0.3294,0.3352,0.3419,0.347,0.3495,0.3519,0.3569,0.3459,0.36,0.3577,0.3602,0.3596,0.3605,0.3369,0.3499,0.3499,0.3498,0.3216,0.3274,0.3337,0.3418,0.348,0.3561,0.3608,0.3647,0.3645,0.37,0.3674,0.3795,0.3794,0.3799,0.3559,0.374,0.374,0.3741,0.3741,0.3246,0.3278,0.3356,0.343,0.3508,0.358,0.3701,0.3729,0.382,0.3796,0.3819,0.3718,0.3813,0.3553,0.3746,0.3745,0.3745,0.3744,0.3744,0.3213,0.3238,0.3286,0.3385,0.3463,0.357,0.3658,0.3757,0.3844,0.3888,0.3877,0.3875,0.3613,0.3917,0.3917,0.3917,0.3918,0.3918,0.3918,0.3146,0.3204,0.3244,0.3338,0.3387,0.3476,0.3636,0.3726,0.3869,0.3928,0.3928,0.3634,0.3847,0.3802,0.392,0.392,0.3919,0.3919,0.3919,0.3131,0.3135,0.319,0.3234,0.3338,0.3352,0.3536,0.3713,0.3842,0.3904,0.3695,0.3961,0.3919,0.3911,0.3868,0.3996,0.3996,0.3996,0.3996,0.3097,0.3111,0.3145,0.3185,0.3246,0.3301,0.3344,0.3509,0.3617,0.3592,0.3593,0.3531,0.3538,0.3468,0.347,0.3416,0.3425,0.3424,0.3423,0.3102,0.3105,0.31,0.3124,0.3186,0.3206,0.3151,0.3168,0.3312,0.3373,0.3263,0.3288,0.3168,0.3198,0.3065,0.3088,0.2992,0,0]},{"header":{"parameterUnit":"m.s-1","parameterCategory":2,"la1":30.2992,"la2":30.254,"lo1":-89.0895,"lo2":-89.0443,"dy":0.0025,"dx":0.0025,"nx":19,"ny":19,"refTime":"2026-04-23T03:00:00:Z","depth":"0","parameterNumber":3,"parameterNumberName":"V-component_of_CURRENTS"},"data":[0,0,0,0.002,0.002,0.0006,0.0006,0.0019,0.0019,0,0,0,0,0,0,0,0,0,0,0,0.0025,0.0025,0.002,0.002,0.0006,0.0006,0.0019,0.0019,0,0,0,0,0,0,0,0,0,0,0,0.0025,0.0025,0.0025,0.002,0.0006,0.0006,0.0019,0.002,0,0,0,0,0,0,0,0,0,0,0.0029,0.0025,0.0025,0.0025,0.002,0.0006,0.0006,0.002,0.002,0.0036,0,0.0038,0,0.0033,0.0021,0.0021,0,0,0,0.0013,0.0025,0.0029,0.0025,0.002,0.0006,0.001,0.0019,0.002,0.0037,0.0038,0.0038,0.0033,0.0021,0.0022,0.0171,0.0172,0,0,0.0014,0.0014,0.0029,0.003,0.0023,0.0011,0.001,0.0019,0.0018,0.0038,0.0039,0.0033,0.0022,0.0022,0.0169,0.0171,0,0,0,0.0021,0.0015,0.0018,0.0029,0.0027,0.0011,0.0009,0.0018,0.0021,0.0039,0.0034,0.0022,0.0022,0.0168,0.017,0.0289,0,0,0,0.0021,0.0019,0.0018,0.0017,0.0026,0.0016,0.0008,0.002,0.0021,0.0033,0.0022,0.0023,0.0166,0.0169,0.0282,0.0318,0,0,0,0.0025,0.0019,0.0021,0.0017,0.0015,0.0016,0.0019,0.002,0.0019,0.0021,0.0023,0.0165,0.0169,0.0276,0.0309,0.0408,0,0,0,0.002,0.006,0.0021,0.0069,0.0015,0.0068,0.0019,0.0045,0.0055,0.0022,0.0167,0.017,0.0274,0.0304,0.0402,0.0491,0.0527,0,0,0.0078,0.0066,0.01,0.0067,0.0129,0.0069,0.016,0.0141,0.0114,0.016,0.0163,0.0284,0.0309,0.0406,0.0681,0.0711,0,0,0,0.0126,0.0145,0.0158,0.018,0.0194,0.0231,0.0207,0.023,0.0283,0.0136,0.0318,0.033,0.0388,0.043,0.0455,0.0354,0.0185,0.0185,0.0184,0.0196,0.0211,0.0268,0.0291,0.0323,0.0351,0.0404,0.0436,0.0381,0.0446,0.0453,0.0641,0.0691,0.0709,0.0605,0.0491,0.0491,0.0492,0.0492,0.0288,0.0328,0.0346,0.0404,0.0443,0.051,0.0599,0.06,0.0705,0.0621,0.0672,0.0585,0.0743,0.0622,0.05,0.0499,0.0498,0.0497,0.0496,0.0329,0.0355,0.0379,0.0463,0.0552,0.0605,0.075,0.0782,0.0808,0.0868,0.0897,0.0896,0.0764,0.0887,0.0888,0.0889,0.0889,0.089,0.089,0.0363,0.0393,0.0454,0.0529,0.0596,0.0709,0.0836,0.0929,0.1029,0.1038,0.1038,0.0839,0.0761,0.0717,0.09,0.0898,0.0897,0.0896,0.0895,0.0435,0.0433,0.0526,0.0589,0.0752,0.0919,0.1008,0.1206,0.127,0.1346,0.1138,0.1144,0.1111,0.1091,0.1056,0.1315,0.1315,0.1315,0.1315,0.0478,0.0485,0.0609,0.0725,0.0886,0.103,0.1319,0.1482,0.1441,0.1385,0.1252,0.1164,0.1151,0.1112,0.1092,0.1052,0.1305,0.1305,0.1304,0.0536,0.0559,0.066,0.0762,0.095,0.1174,0.1481,0.1745,0.158,0.1286,0.1098,0.1099,0.0943,0.0931,0.0841,0.082,0.0743,0,0]}],[{"header":{"parameterUnit":"m.s-1","parameterCategory":2,"la1":30.2992,"la2":30.254,"lo1":-89.0895,"lo2":-89.0443,"dy":0.0025,"dx":0.0025,"nx":19,"ny":19,"refTime":"2026-04-23T03:00:00:Z","depth":"2","parameterNumber":2,"parameterNumberName":"U-component_of_CURRENTS"},"data":[0,0,0,0.2596,0.26,0.2755,0.2755,0.2879,0.288,0,0,0,0,0,0,0,0,0,0,0,0.2562,0.2563,0.2596,0.26,0.2755,0.2756,0.2879,0.288,0,0,0,0,0,0,0,0,0,0,0,0.2561,0.2563,0.2565,0.2601,0.2755,0.2756,0.2879,0.2781,0,0,0,0,0,0,0,0,0,0,0.2639,0.2618,0.2562,0.2565,0.2602,0.2755,0.2756,0.2777,0.2787,0.2788,0,0.2835,0,0.2852,0.2887,0.2887,0,0,0,0.26,0.261,0.2649,0.2565,0.2603,0.2754,0.2685,0.2783,0.2794,0.2801,0.2837,0.2841,0.2854,0.2888,0.2888,0.3107,0.3109,0,0,0.2592,0.2586,0.2642,0.2657,0.2672,0.268,0.269,0.2791,0.2814,0.2837,0.2844,0.2856,0.2888,0.2889,0.3105,0.3107,0,0,0,0.2567,0.258,0.2619,0.2652,0.2682,0.2685,0.2696,0.281,0.2823,0.2846,0.2857,0.2889,0.289,0.3104,0.3106,0.3242,0,0,0,0.2562,0.2566,0.2615,0.2613,0.2681,0.2757,0.2713,0.2817,0.2828,0.2857,0.2889,0.2891,0.3102,0.3105,0.3235,0.3172,0,0,0,0.2549,0.2564,0.259,0.2613,0.2677,0.2756,0.2776,0.282,0.2835,0.2887,0.2891,0.31,0.3104,0.3228,0.3165,0.3188,0,0,0,0.2524,0.2594,0.2591,0.268,0.2676,0.2823,0.2776,0.2904,0.2967,0.2889,0.3102,0.3106,0.3226,0.316,0.3184,0.2962,0.2962,0,0,0.2592,0.2602,0.2654,0.2655,0.2767,0.28,0.2953,0.3018,0.3019,0.3058,0.3065,0.3237,0.3164,0.3187,0.3191,0.3183,0,0,0,0.2662,0.2692,0.2735,0.2797,0.2892,0.2964,0.3064,0.3119,0.3227,0.3072,0.328,0.3227,0.3238,0.3098,0.3095,0.3125,0.3124,0.3124,0.3123,0.2718,0.2751,0.2824,0.2884,0.2979,0.3118,0.3201,0.3288,0.3335,0.343,0.3377,0.3519,0.3381,0.3373,0.3482,0.3483,0.3483,0.3484,0.3484,0.2766,0.2783,0.2843,0.2926,0.3015,0.3154,0.3315,0.3397,0.3528,0.3538,0.3547,0.3294,0.3375,0.3496,0.3494,0.3492,0.3491,0.349,0.3489,0.2737,0.2746,0.2812,0.2904,0.3018,0.3166,0.327,0.3428,0.3555,0.3612,0.3448,0.3441,0.3503,0.3666,0.3666,0.3666,0.3666,0.3666,0.3666,0.267,0.2726,0.2781,0.2881,0.2956,0.3075,0.3271,0.3368,0.3457,0.3485,0.3484,0.3577,0.3571,0.3512,0.3665,0.3665,0.3665,0.3665,0.3665,0.2633,0.2664,0.2731,0.28,0.2929,0.2934,0.3118,0.3195,0.3306,0.3294,0.3404,0.3411,0.3305,0.3305,0.3239,0.3312,0.3312,0.3312,0.3312,0.2602,0.2617,0.2716,0.2782,0.2842,0.2877,0.2772,0.2721,0.2882,0.2836,0.2857,0.2795,0.282,0.2682,0.2697,0.2616,0.2527,0.2525,0.2524,0.2599,0.2632,0.2688,0.275,0.281,0.2763,0.2491,0.2137,0.2165,0.2491,0.2701,0.3263,0.3228,0.3245,0.3076,0.3084,0.297,0,0]},{"header":{"parameterUnit":"m.s-1","parameterCategory":2,"la1":30.2992,"la2":30.254,"lo1":-89.0895,"lo2":-89.0443,"dy":0.0025,"dx":0.0025,"nx":19,"ny":19,"refTime":"2026-04-23T03:00:00:Z","depth":"2","parameterNumber":3,"parameterNumberName":"V-component_of_CURRENTS"},"data":[0,0,0,-0.0423,-0.0423,-0.0407,-0.0407,-0.0251,-0.0249,0,0,0,0,0,0,0,0,0,0,0,-0.0433,-0.0433,-0.0423,-0.0423,-0.0407,-0.0407,-0.0251,-0.0249,0,0,0,0,0,0,0,0,0,0,0,-0.0433,-0.0433,-0.0433,-0.0423,-0.0407,-0.0407,-0.0252,-0.0294,0,0,0,0,0,0,0,0,0,0,-0.0325,-0.0356,-0.0433,-0.0433,-0.0423,-0.0407,-0.0407,-0.0298,-0.0292,-0.0223,0,-0.0237,0,-0.024,-0.0237,-0.0236,0,0,0,-0.041,-0.0362,-0.0361,-0.0433,-0.0423,-0.0407,-0.0411,-0.0295,-0.0288,-0.0215,-0.0235,-0.023,-0.0237,-0.0236,-0.0235,-0.001,-0.0009,0,0,-0.0411,-0.0417,-0.0367,-0.0357,-0.0436,-0.0411,-0.0411,-0.0292,-0.0286,-0.0235,-0.0227,-0.0234,-0.0235,-0.0233,-0.0011,-0.001,0,0,0,-0.0422,-0.0418,-0.0422,-0.0363,-0.0371,-0.0411,-0.041,-0.0292,-0.0296,-0.0226,-0.0233,-0.0234,-0.0231,-0.0012,-0.0011,0.0058,0,0,0,-0.0422,-0.0425,-0.0423,-0.0425,-0.0375,-0.0349,-0.0412,-0.0304,-0.0291,-0.0233,-0.0234,-0.023,-0.0013,-0.0011,0.0053,0.0028,0,0,0,-0.043,-0.0426,-0.0431,-0.0425,-0.0425,-0.0352,-0.0349,-0.0302,-0.0294,-0.0236,-0.0229,-0.0014,-0.0012,0.0049,0.0023,0.012,0,0,0,-0.0426,-0.0422,-0.0432,-0.0416,-0.0425,-0.037,-0.035,-0.03,-0.0252,-0.0233,-0.0013,-0.0011,0.0048,0.0021,0.0116,0.031,0.0343,0,0,-0.0412,-0.042,-0.0406,-0.0415,-0.0367,-0.0371,-0.0275,-0.0214,-0.0181,-0.0043,-0.0039,0.0055,0.0023,0.012,0.0458,0.0487,0,0,0,-0.0394,-0.0387,-0.0373,-0.0352,-0.0322,-0.0263,-0.0212,-0.0156,-0.0029,-0.0144,0.0088,0.0065,0.0125,0.0235,0.0258,0.0002,0.0001,0.0001,0.0001,-0.036,-0.0348,-0.0312,-0.0284,-0.0244,-0.0168,-0.01,-0.0006,0.0033,0.011,0.0149,0.0295,0.0416,0.0435,0.0209,0.0209,0.0209,0.0209,0.021,-0.0311,-0.0281,-0.0262,-0.0226,-0.0169,-0.0089,0.0048,0.0095,0.0262,0.0246,0.0303,0.0333,0.0466,0.0216,0.0215,0.0214,0.0213,0.0213,0.0212,-0.0261,-0.0249,-0.0241,-0.0187,-0.0111,-0.0028,0.0134,0.0215,0.03,0.0362,0.0538,0.0539,0.0313,0.0438,0.0439,0.0439,0.0439,0.044,0.044,-0.0215,-0.021,-0.017,-0.0133,-0.0079,0.0037,0.0202,0.0336,0.0536,0.0601,0.0605,0.0372,0.0364,0.0327,0.0446,0.0445,0.0444,0.0443,0.0443,-0.0149,-0.0158,-0.0089,-0.0044,0.0086,0.0328,0.0421,0.0773,0.0849,0.0998,0.0767,0.0757,0.075,0.0733,0.0707,0.0916,0.0916,0.0916,0.0916,-0.0099,-0.0103,0.0017,0.0118,0.0276,0.0478,0.0965,0.1141,0.1162,0.1062,0.1054,0.1044,0.1024,0.1028,0.1004,0.0979,0.1259,0.1259,0.1259,-0.0048,-0.002,0.0099,0.0191,0.0377,0.0727,0.1276,0.1442,0.1252,0.1259,0.0966,0.0967,0.0933,0.091,0.0893,0.0864,0.0815,0,0]}],[{"header":{"parameterUnit":"m.s-1","parameterCategory":2,"la1":30.2992,"la2":30.254,"lo1":-89.0895,"lo2":-89.0443,"dy":0.0025,"dx":0.0025,"nx":19,"ny":19,"refTime":"2026-04-23T03:00:00:Z","depth":"4","parameterNumber":2,"parameterNumberName":"U-component_of_CURRENTS"},"data":[0,0,0,0.0456,0.0459,0.0603,0.0603,0.0815,0.0817,0,0,0,0,0,0,0,0,0,0,0,0.0387,0.0388,0.0455,0.046,0.0603,0.0603,0.0815,0.0817,0,0,0,0,0,0,0,0,0,0,0,0.0386,0.0388,0.0389,0.046,0.0603,0.0603,0.0814,0.0693,0,0,0,0,0,0,0,0,0,0,0.0548,0.0494,0.0387,0.0389,0.0461,0.0603,0.0603,0.0687,0.0701,0.0766,0,0.0795,0,0.0834,0.0835,0.0835,0,0,0,0.0435,0.0482,0.0526,0.0389,0.0463,0.0603,0.0531,0.0694,0.071,0.0785,0.0799,0.0807,0.0838,0.0836,0.0838,0.1114,0.1116,0,0,0.0427,0.0411,0.0514,0.0536,0.0512,0.0527,0.0536,0.0703,0.0724,0.0799,0.0813,0.0841,0.0838,0.084,0.1113,0.1115,0,0,0,0.0421,0.0405,0.0442,0.0526,0.0564,0.0532,0.0542,0.0715,0.0729,0.0815,0.0844,0.0839,0.0843,0.1112,0.1114,0.1069,0,0,0,0.0415,0.0404,0.0439,0.043,0.056,0.0641,0.055,0.0716,0.0738,0.0843,0.084,0.0845,0.1111,0.1113,0.1068,0.1085,0,0,0,0.0378,0.04,0.042,0.0429,0.0505,0.0639,0.0661,0.0721,0.0758,0.0836,0.0846,0.111,0.1113,0.1066,0.1083,0.1112,0,0,0,0.035,0.0369,0.042,0.0457,0.0504,0.0586,0.066,0.0739,0.08,0.0841,0.1111,0.1114,0.1066,0.1081,0.111,0.0984,0,0,0,0.0348,0.0369,0.0388,0.0437,0.049,0.0563,0.0658,0.0775,0.0871,0.1051,0.1058,0.1068,0.1082,0.1112,0.1143,0,0,0,0,0.037,0.0391,0.0412,0.0468,0.0532,0.0627,0.0738,0.0816,0.0986,0.093,0.1135,0.1148,0.1166,0.1091,0.1127,0.1126,0.1126,0.1126,0.1125,0.0336,0.0377,0.042,0.0491,0.0546,0.0689,0.077,0.0921,0.0999,0.1087,0.1159,0.1223,0.1146,0.1196,0.1196,0.1196,0.1196,0.1196,0.1196,0.0336,0.0366,0.0436,0.0498,0.0598,0.0702,0.0879,0.0958,0.1147,0.1194,0.1211,0.111,0.1193,0.1194,0.1194,0.1194,0.1194,0.1195,0.1195,0.0305,0.0329,0.0392,0.0482,0.0608,0.0752,0.0894,0.104,0.1154,0.1192,0.1173,0.123,0.118,0.123,0.123,0.123,0.123,0.123,0.1231,0.0246,0.0308,0.0359,0.0475,0.0547,0.0706,0.0944,0.103,0.1158,0.1166,0.1234,0.1236,0.1235,0.1187,0.1234,0.1233,0.1233,0.1233,0.1232,0.0211,0.0239,0.0293,0.0355,0.0516,0.0611,0.0844,0.1019,0.1098,0.112,0.1135,0.1139,0.1156,0.1158,0.1105,0.113,0.1129,0.1128,0,0.0172,0.0193,0.0248,0.0301,0.0393,0.0549,0.0687,0.0835,0.0954,0.0922,0.103,0.1037,0.1043,0.1049,0.105,0.0982,0,0,0,0.0153,0.0168,0.0184,0.0241,0.0323,0.0522,0.0723,0.0765,0.0954,0.1011,0.1091,0.1101,0.1137,0.1244,0.128,0.1279,0.1204,0,0]},{"header":{"parameterUnit":"m.s-1","parameterCategory":2,"la1":30.2992,"la2":30.254,"lo1":-89.0895,"lo2":-89.0443,"dy":0.0025,"dx":0.0025,"nx":19,"ny":19,"refTime":"2026-04-23T03:00:00:Z","depth":"4","parameterNumber":3,"parameterNumberName":"V-component_of_CURRENTS"},"data":[0,0,0,0.0453,0.0453,0.0477,0.0477,0.0488,0.0488,0,0,0,0,0,0,0,0,0,0,0,0.0443,0.0443,0.0453,0.0453,0.0477,0.0477,0.0488,0.0488,0,0,0,0,0,0,0,0,0,0,0,0.0443,0.0443,0.0443,0.0453,0.0477,0.0477,0.0488,0.0474,0,0,0,0,0,0,0,0,0,0,0.0453,0.0459,0.0443,0.0443,0.0454,0.0477,0.0477,0.0474,0.0475,0.0472,0,0.0478,0,0.0484,0.0489,0.0489,0,0,0,0.0451,0.0459,0.0454,0.0443,0.0454,0.0477,0.0466,0.0475,0.0476,0.0474,0.0478,0.0478,0.0485,0.0489,0.0489,0.0442,0.0442,0,0,0.045,0.0457,0.0453,0.0455,0.0462,0.0465,0.0467,0.0476,0.0484,0.0478,0.0479,0.0485,0.0489,0.0489,0.0443,0.0442,0,0,0,0.0447,0.0456,0.0452,0.0454,0.0461,0.0466,0.0468,0.0484,0.048,0.0479,0.0485,0.0489,0.0489,0.0443,0.0442,0.0492,0,0,0,0.0447,0.0455,0.0452,0.0457,0.0461,0.0479,0.0475,0.0479,0.048,0.0485,0.0489,0.0489,0.0444,0.0443,0.0492,0.0559,0,0,0,0.0441,0.0455,0.0455,0.0458,0.0468,0.0479,0.0476,0.0479,0.0484,0.0489,0.0489,0.0444,0.0443,0.0492,0.0556,0.0545,0,0,0,0.045,0.0466,0.0456,0.0479,0.0468,0.0485,0.0476,0.0496,0.0503,0.0489,0.0444,0.0443,0.0492,0.0555,0.0544,0.0562,0,0,0,0.0474,0.0469,0.0482,0.0473,0.0505,0.0481,0.0498,0.0505,0.0473,0.0441,0.044,0.0492,0.0556,0.0545,0.0481,0,0,0,0,0.0492,0.0506,0.0513,0.053,0.0529,0.0537,0.0525,0.0492,0.0458,0.0471,0.045,0.049,0.0481,0.0485,0.0436,0.0436,0.0436,0.0437,0.0437,0.0544,0.0543,0.0576,0.0577,0.0584,0.057,0.0558,0.0502,0.0473,0.044,0.0497,0.0486,0.0487,0.0435,0.0435,0.0435,0.0435,0.0435,0.0435,0.0592,0.0609,0.0621,0.0656,0.0652,0.0667,0.0598,0.0564,0.0513,0.0479,0.0467,0.0498,0.0439,0.0438,0.0438,0.0437,0.0437,0.0437,0.0437,0.0622,0.0629,0.0664,0.0713,0.076,0.0749,0.0757,0.0694,0.0588,0.0585,0.0557,0.0516,0.0549,0.0565,0.0566,0.0566,0.0566,0.0566,0.0566,0.0633,0.0662,0.0717,0.0778,0.0836,0.0886,0.0861,0.0812,0.071,0.0639,0.061,0.0529,0.0525,0.0554,0.057,0.0569,0.0569,0.0568,0.0568,0.0641,0.0672,0.0746,0.0811,0.0938,0.0968,0.0967,0.0861,0.0799,0.071,0.0633,0.0629,0.0618,0.0611,0.0643,0.0686,0.0687,0.0687,0,0.0648,0.0665,0.078,0.0883,0.0975,0.101,0.0964,0.0903,0.0764,0.0758,0.0756,0.0673,0.0668,0.0658,0.0653,0.0692,0,0,0,0.0649,0.0685,0.0771,0.0887,0.0997,0.0963,0.0949,0.09,0.0813,0.0743,0.0696,0.0693,0.0645,0.058,0.0552,0.0547,0.0593,0,0]}]]